Regional Weather Roundup
Issued by NWS

Home | Current Version | Previous Version | Text Only | Print | Product List | Glossary Off
Versions: 1 2 3 4 5 6 7 8 9 10 11 12 13 14 15 16 17 18 19 20 21 22 23 24 25 26 27 28 29 30 31 32 33 34 35 36 37 38 39 40 41 42 43 44 45 46 47 48 49 50

852
ASUS43 KBIS 211610
RWRND

NORTH DAKOTA REGIONAL WEATHER ROUNDUP
NATIONAL WEATHER SERVICE BISMARCK ND
1000 AM CST SAT JAN 21 2017

NOTE: "FAIR" INDICATES FEW OR NO CLOUDS BELOW 12,000 FEET WITH NO
SIGNIFICANT WEATHER AND/OR OBSTRUCTIONS TO VISIBILITY.


NDZ001>003-009>011-017-211700-
NORTHWEST NORTH DAKOTA

CITY           SKY/WX    TMP DP  RH WIND       PRES   REMARKS
WILLISTON      CLOUDY    28  24  85 CALM      29.33S
MINOT          CLOUDY    29  26  89 CALM      29.33R FOG
MINOT AFB      CLOUDY    27  26  96 CALM      29.33R FOG
$$

NDZ018>021-031>035-040>046-211700-
SOUTHWEST NORTH DAKOTA

CITY           SKY/WX    TMP DP  RH WIND       PRES   REMARKS
BISMARCK       CLOUDY    28  25  88 CALM      29.35F FOG
DICKINSON      CLOUDY    25  22  88 W8        29.30R WCI  16
GARRISON         N/A     21  20  96 CALM      29.33R
HETTINGER ARPT MOSUNNY   25  21  85 W12       29.34R WCI  14
$$

NDZ004>008-012>016-024-026-027-054-211700-
NORTHEAST NORTH DAKOTA

CITY           SKY/WX    TMP DP  RH WIND       PRES   REMARKS
GRAND FORKS    CLOUDY    36  32  85 SE9       29.42S
GRND FRKS AFB  CLOUDY    34  34  99 SE8       29.41S
DEVILS LAKE    FOG       33  33 100 SE6       29.38R VSB 1/4
$$

NDZ022-023-025-028>030-036>039-047>053-211700-
SOUTHEAST NORTH DAKOTA

CITY           SKY/WX    TMP DP  RH WIND       PRES   REMARKS
FARGO          CLOUDY    38  34  85 E8        29.40S
JAMESTOWN      MIX PCPN  32  32 100 SE6       29.35R VSB 1/4
$$





USA.gov is the U.S. government's official web portal to all federal, state and local government web resources and services.